2019-038E (44391 NORAD) Tracking and Keplerian Element Data

This shows tracking and keplerian element data for the satellite.

Feedback or suggestion? Click here.




ElementValue
Catalog44391
Name2019-038E
Epoch Orbit425
Epoch Day215.31729568
Epoch Year2019
RAAN176.9158
Inclination97.6835
Eccentricity0.0022001
Argument of Perigee136.7643
Mean Anonmoly223.5329
Mean Motion14.96564523
Decay Rate1.781E-05
L11 44391U 19038E 19215.31729568 .00001781 00000-0 16085-3 0 9991
L22 44391 97.6835 176.9158 0022001 136.7643 223.5329 14.96564523 4255

Live tracking and technical data element details for 2019-038E (NORAD 44391). 2019-038E can be tracked NOW for your location showing map with azimuth and elevation plus other details from your city location.

Track the satellite on the map from your city or location and see movement details for azimuth, elevation, latitude, longitude, range, height, and movement on the map or in text.







IsCatalogInMostPopularTable: catalog: 44391, numindb: 24
Update: records affected: 1



GetName: 44391 2019-038E

Hit Count: updated at: Thu, 05 Dec 2019 17:46:24 GMT